Regional Weather Roundup
Issued by NWS

Home | Current Version | Previous Version | Graphics & Text | Print | Product List | Glossary On
Versions: 1 2 3 4 5 6 7 8 9 10 11 12 13 14 15 16 17 18 19 20 21 22 23 24 25 26 27 28 29 30 31 32 33 34 35 36 37 38 39 40 41 42 43 44 45 46 47 48 49 50
000
ASUS43 KIND 281859
RWRIN

WEATHER ROUNDUP FOR INDIANA
NATIONAL WEATHER SERVICE INDIANAPOLIS IN
300 PM EDT SAT MAR 28 2015

NOTE: "FAIR" INDICATES FEW OR NO CLOUDS BELOW 12,000 FEET WITH NO
SIGNIFICANT WEATHER AND/OR OBSTRUCTIONS TO VISIBILITY.

* - STATION DOES NOT REPORT WEATHER SUCH AS PRECIPITATION OR FOG.

+ - STATION NOT QUALITY CONTROLLED BY THE NATIONAL WEATHER SERVICE.
    USE DATA WITH CAUTION...ESPECIALLY DEWPOINT AND RELATIVE
    HUMIDITY OBSERVATIONS.

INZ001>003-010>013-019-020-282000-
NORTHWEST INDIANA

CITY           SKY/WX    TMP DP  RH WIND       PRES   REMARKS

$$

LMZ046-743>745-282000-
SOUTHERN LAKE MICHIGAN

STATION/POSITION TIME  TEMP WIND        PRES
                       AIR  DIR/SP/G
                 (UTC) (F)  (DEG/KT/KT) (MB)
BURNS HARBOR     1800   25   10/  5/  9 1028.1S
MICHIGAN CITY    1800   25  340/  8/ 11   N/A

$$

INZ004-005-014>016-021>024-282000-
NORTH CENTRAL INDIANA

CITY           SKY/WX    TMP DP  RH WIND       PRES   REMARKS
GOSHEN         SUNNY     33   5  30 CALM      30.29F
SOUTH BEND     SUNNY     34   5  29 SW3       30.31F

$$

INZ006>009-017-018-025>027-282000-
NORTHEAST INDIANA

CITY           SKY/WX    TMP DP  RH WIND       PRES   REMARKS
ANGOLA *+      SUNNY     30   9  40 N7        30.28F WCI  23
FORT WAYNE     MOSUNNY   32   7  35 CALM      30.30F

$$

INZ028-029-035-036-043>045-051>053-282000-
WEST CENTRAL INDIANA

CITY           SKY/WX    TMP DP  RH WIND       PRES   REMARKS
CRAWFORDSVL +  SUNNY     32   6  33 NE3       30.31S
GREENCASTLE +  SUNNY     34  10  37 NE3       30.31S
LAFAYETTE      SUNNY     34   9  35 CALM      30.32F
TERRE HAUTE    SUNNY     36  16  44 W5        30.32F

$$

INZ030>032-037>040-046>048-054>057-064-065-282000-
CENTRAL INDIANA

CITY           SKY/WX    TMP DP  RH WIND       PRES   REMARKS
ANDERSON       SUNNY     32  10  40 NW6       30.30F WCI  26
COLUMBUS       SUNNY     34  10  37 NE6       30.31F WCI  29
FRANKFORT +    SUNNY     34  15  45 N3        30.32F
GREENWOOD *+   SUNNY     34  10  37 W3        30.30F
INDIANAPOLIS   SUNNY     36   9  32 VRB5      30.28F
-EAGLE CREEK   SUNNY     34  12  40 NW6       30.29F WCI  29
KOKOMO *+        N/A     34  12  40 N6        30.31F WCI  29
MT COMFORT *+  SUNNY     34   0  23 CALM      30.30F
SHELBYVILLE    SUNNY     35  14  42 NW5       30.29F WCI  31

$$

INZ033-034-041-042-049-050-058-059-282000-
EAST CENTRAL INDIANA

CITY           SKY/WX    TMP DP  RH WIND       PRES   REMARKS
MUNCIE         SUNNY     32  14  47 N8        30.29F WCI  25

$$

INZ060-061-067>069-081>083-085>088-282000-
SOUTHWEST INDIANA

CITY           SKY/WX    TMP DP  RH WIND       PRES   REMARKS
EVANSVILLE     SUNNY     41  20  43 N5        30.33F
HUNTINGBURG *+ SUNNY     37  16  41 N6        30.32S

$$

INZ062-063-066-070>080-084-089>092-282000-
SOUTH CENTRAL AND SOUTHEAST INDIANA

CITY           SKY/WX    TMP DP  RH WIND       PRES   REMARKS
BLOOMINGTON    SUNNY     36  12  37 VRB5      30.29F
SEYMOUR +      SUNNY     37  18  44 N5        30.31F

$$




USA.gov is the U.S. government's official web portal to all federal, state and local government web resources and services.